Location: Waco, TX
(31.5480°N, 97.1670°W)
Time: 13:48:11

ISS - Pass Details

Date: 20 March 2018
Orbit: 403 x 406 km, 51.6° (Epoch: 23 March)

Event Time Altitude Azimuth Distance (km) Brightness Sun altitude
Rises 21:40:01 0° 215° (SW) 2,308 0.2 -25.9°
Enters shadow 21:40:36 - 214° (SW) 2,069 0.0 -26.1°
Reaches altitude 10° 21:42:07 10° 211° (SSW) 1,452 - -26.4°
Maximum altitude 21:45:18 55° 132° (SE) 489 - -27.0°
Drops below altitude 10° 21:48:31 10° 54° (NE) 1,461 - -27.7°
Sets 21:50:37 0° 50° (NE) 2,324 - -28.1°
